Time,TemperatureF,DewpointF,PressureIn,WindDirection,WindDirectionDegrees,WindSpeedMPH,WindSpeedGustMPH,Humidity,HourlyPrecipIn,Conditions,Clouds,dailyrainin,SoftwareType,DateUTC
2013-02-26 00:01:00,62.0,55.0,-100.00,SSW,206,0.0,4.0,77,0.00,,,0.00,,2013-02-26 10:01:00,
2013-02-26 00:11:00,60.0,51.0,-100.00,East,95,0.0,4.0,73,0.00,,,0.00,,2013-02-26 10:11:00,
2013-02-26 00:32:00,60.0,51.0,-100.00,East,95,0.0,4.0,73,0.00,,,0.00,,2013-02-26 10:32:00,
2013-02-26 00:42:00,60.0,51.0,-100.00,East,95,0.0,4.0,73,0.00,,,0.00,,2013-02-26 10:42:00,
2013-02-26 00:52:00,60.0,51.0,-100.00,East,95,0.0,4.0,73,0.00,,,0.00,,2013-02-26 10:52:00,
2013-02-26 01:01:00,60.0,51.0,-100.00,East,95,0.0,4.0,73,0.00,,,0.00,,2013-02-26 11:01:00,
2013-02-26 01:11:00,63.0,53.0,-100.00,ESE,112,1.0,6.0,70,0.00,,,0.00,,2013-02-26 11:11:00,
2013-02-26 01:32:00,63.0,53.0,-100.00,ESE,112,1.0,6.0,70,0.00,,,0.00,,2013-02-26 11:32:00,
2013-02-26 01:42:00,63.0,53.0,-100.00,ESE,112,1.0,6.0,70,0.00,,,0.00,,2013-02-26 11:42:00,
2013-02-26 01:52:00,63.0,53.0,-100.00,ESE,112,1.0,6.0,70,0.00,,,0.00,,2013-02-26 11:52:00,
2013-02-26 02:01:00,63.0,53.0,-100.00,ESE,112,1.0,6.0,70,0.00,,,0.00,,2013-02-26 12:01:00,
2013-02-26 02:11:00,62.0,52.0,-100.00,East,96,0.0,5.0,69,0.00,,,0.00,,2013-02-26 12:11:00,
2013-02-26 02:32:00,62.0,52.0,-100.00,East,96,0.0,5.0,69,0.00,,,0.00,,2013-02-26 12:32:00,
2013-02-26 02:42:00,62.0,52.0,-100.00,East,96,0.0,5.0,69,0.00,,,0.00,,2013-02-26 12:42:00,
2013-02-26 02:53:00,62.0,52.0,-100.00,East,96,0.0,5.0,69,0.00,,,0.00,,2013-02-26 12:53:00,
2013-02-26 03:01:00,62.0,52.0,-100.00,East,96,0.0,5.0,69,0.00,,,0.00,,2013-02-26 13:01:00,
2013-02-26 03:11:00,62.0,54.0,-100.00,East,101,0.0,5.0,74,0.00,,,0.00,,2013-02-26 13:11:00,
2013-02-26 03:42:00,62.0,54.0,-100.00,East,101,0.0,5.0,74,0.00,,,0.00,,2013-02-26 13:42:00,
2013-02-26 03:52:00,62.0,54.0,-100.00,East,101,0.0,5.0,74,0.00,,,0.00,,2013-02-26 13:52:00,
2013-02-26 04:01:00,62.0,54.0,-100.00,East,101,0.0,5.0,74,0.00,,,0.00,,2013-02-26 14:01:00,
2013-02-26 04:11:00,61.0,53.0,-100.00,SE,124,0.0,6.0,74,0.00,,,0.00,,2013-02-26 14:11:00,
2013-02-26 04:32:00,61.0,53.0,-100.00,SE,124,0.0,6.0,74,0.00,,,0.00,,2013-02-26 14:32:00,
2013-02-26 04:42:00,61.0,53.0,-100.00,SE,124,0.0,6.0,74,0.00,,,0.00,,2013-02-26 14:42:00,
2013-02-26 04:52:00,61.0,53.0,-100.00,SE,124,0.0,6.0,74,0.00,,,0.00,,2013-02-26 14:52:00,
2013-02-26 05:01:00,61.0,53.0,-100.00,SE,124,0.0,6.0,74,0.00,,,0.00,,2013-02-26 15:01:00,
2013-02-26 05:11:00,63.0,53.0,-100.00,East,99,0.0,6.0,71,0.00,,,0.00,,2013-02-26 15:11:00,
2013-02-26 05:32:00,63.0,53.0,-100.00,East,99,0.0,6.0,71,0.00,,,0.00,,2013-02-26 15:32:00,
2013-02-26 05:42:00,63.0,53.0,-100.00,East,99,0.0,6.0,71,0.00,,,0.00,,2013-02-26 15:42:00,
2013-02-26 05:52:00,63.0,53.0,-100.00,East,99,0.0,6.0,71,0.00,,,0.00,,2013-02-26 15:52:00,
2013-02-26 06:01:00,63.0,53.0,-100.00,East,99,0.0,6.0,71,0.00,,,0.00,,2013-02-26 16:01:00,
2013-02-26 06:11:00,60.0,52.0,-100.00,SSE,151,0.0,3.0,74,0.00,,,0.00,,2013-02-26 16:11:00,
2013-02-26 06:32:00,60.0,52.0,-100.00,SSE,151,0.0,3.0,74,0.00,,,0.00,,2013-02-26 16:32:00,
2013-02-26 06:42:00,60.0,52.0,-100.00,SSE,151,0.0,3.0,74,0.00,,,0.00,,2013-02-26 16:42:00,
2013-02-26 06:52:00,60.0,52.0,-100.00,SSE,151,0.0,3.0,74,0.00,,,0.00,,2013-02-26 16:52:00,
2013-02-26 07:01:00,60.0,52.0,-100.00,SSE,151,0.0,3.0,74,0.00,,,0.00,,2013-02-26 17:01:00,
2013-02-26 07:11:00,61.0,53.0,-100.00,ESE,110,0.0,4.0,74,0.00,,,0.00,,2013-02-26 17:11:00,
2013-02-26 07:32:00,61.0,53.0,-100.00,ESE,110,0.0,4.0,74,0.00,,,0.00,,2013-02-26 17:32:00,
2013-02-26 07:42:00,61.0,53.0,-100.00,ESE,110,0.0,4.0,74,0.00,,,0.00,,2013-02-26 17:42:00,
2013-02-26 07:52:00,61.0,53.0,-100.00,ESE,110,0.0,4.0,74,0.00,,,0.00,,2013-02-26 17:52:00,
2013-02-26 08:01:00,61.0,53.0,-100.00,ESE,110,0.0,4.0,74,0.00,,,0.00,,2013-02-26 18:01:00,
2013-02-26 08:11:00,63.0,53.0,-100.00,ENE,58,0.0,4.0,71,0.00,,,0.00,,2013-02-26 18:11:00,
2013-02-26 08:32:00,63.0,53.0,-100.00,ENE,58,0.0,4.0,71,0.00,,,0.00,,2013-02-26 18:32:00,
2013-02-26 08:42:00,63.0,53.0,-100.00,ENE,58,0.0,4.0,71,0.00,,,0.00,,2013-02-26 18:42:00,
2013-02-26 08:52:00,63.0,53.0,-100.00,ENE,58,0.0,4.0,71,0.00,,,0.00,,2013-02-26 18:52:00,
2013-02-26 09:01:00,63.0,53.0,-100.00,ENE,58,0.0,4.0,71,0.00,,,0.00,,2013-02-26 19:01:00,
2013-02-26 09:11:00,72.0,56.0,-100.00,NNE,32,1.0,5.0,58,0.00,,,0.00,,2013-02-26 19:11:00,
2013-02-26 09:42:00,72.0,56.0,-100.00,NNE,32,1.0,5.0,58,0.00,,,0.00,,2013-02-26 19:42:00,
2013-02-26 09:52:00,72.0,56.0,-100.00,NNE,32,1.0,5.0,58,0.00,,,0.00,,2013-02-26 19:52:00,
2013-02-26 10:01:00,72.0,56.0,-100.00,NNE,32,1.0,5.0,58,0.00,,,0.00,,2013-02-26 20:01:00,
2013-02-26 12:11:00,77.0,61.0,-100.00,SW,224,4.0,11.0,58,-99.99,,,0.00,,2013-02-26 22:11:00,
2013-02-26 12:42:00,77.0,61.0,-100.00,SW,224,4.0,11.0,58,-99.99,,,0.00,,2013-02-26 22:42:00,
2013-02-26 12:52:00,77.0,61.0,-100.00,SW,224,4.0,11.0,58,-99.99,,,0.00,,2013-02-26 22:52:00,
2013-02-26 13:01:00,77.0,61.0,-100.00,SW,224,4.0,11.0,58,-99.99,,,0.00,,2013-02-26 23:01:00,
2013-02-26 13:11:00,78.0,58.0,-100.00,WSW,240,2.0,9.0,50,0.00,,,0.00,,2013-02-26 23:11:00,
2013-02-26 13:32:00,78.0,58.0,-100.00,WSW,240,2.0,9.0,50,0.00,,,0.00,,2013-02-26 23:32:00,
2013-02-26 13:42:00,78.0,58.0,-100.00,WSW,240,2.0,9.0,50,0.00,,,0.00,,2013-02-26 23:42:00,
2013-02-26 13:52:00,78.0,58.0,-100.00,WSW,240,2.0,9.0,50,0.00,,,0.00,,2013-02-26 23:52:00,
2013-02-26 14:01:00,78.0,58.0,-100.00,WSW,240,2.0,9.0,50,0.00,,,0.00,,2013-02-27 00:01:00,
2013-02-26 14:11:00,80.0,56.0,-100.00,NNE,29,4.0,15.0,44,0.00,,,-99.99,,2013-02-27 00:11:00,
2013-02-26 14:42:00,80.0,56.0,-100.00,NNE,29,4.0,15.0,44,0.00,,,-99.99,,2013-02-27 00:42:00,
2013-02-26 14:52:00,80.0,56.0,-100.00,NNE,29,4.0,15.0,44,0.00,,,-99.99,,2013-02-27 00:52:00,
2013-02-26 15:01:00,80.0,56.0,-100.00,NNE,29,4.0,15.0,44,0.00,,,-99.99,,2013-02-27 01:01:00,
2013-02-26 15:11:00,79.0,59.0,-100.00,SE,136,3.0,9.0,51,0.00,,,0.00,,2013-02-27 01:11:00,
2013-02-26 15:32:00,79.0,59.0,-100.00,SE,136,3.0,9.0,51,0.00,,,0.00,,2013-02-27 01:32:00,
2013-02-26 15:42:00,79.0,59.0,-100.00,SE,136,3.0,9.0,51,0.00,,,0.00,,2013-02-27 01:42:00,
2013-02-26 15:52:00,79.0,59.0,-100.00,SE,136,3.0,9.0,51,0.00,,,0.00,,2013-02-27 01:52:00,
2013-02-26 16:01:00,79.0,59.0,-100.00,SE,136,3.0,9.0,51,0.00,,,0.00,,2013-02-27 02:01:00,
2013-02-26 16:11:00,78.0,60.0,-100.00,NNE,29,3.0,9.0,54,0.00,,,0.00,,2013-02-27 02:11:00,
2013-02-26 16:42:00,78.0,60.0,-100.00,NNE,29,3.0,9.0,54,0.00,,,0.00,,2013-02-27 02:42:00,
2013-02-26 16:52:00,78.0,60.0,-100.00,NNE,29,3.0,9.0,54,0.00,,,0.00,,2013-02-27 02:52:00,
2013-02-26 17:01:00,78.0,60.0,-100.00,NNE,29,3.0,9.0,54,0.00,,,0.00,,2013-02-27 03:01:00,
2013-02-26 17:11:00,75.0,59.0,-100.00,NNE,23,2.0,8.0,58,0.00,,,0.00,,2013-02-27 03:11:00,
2013-02-26 17:32:00,75.0,59.0,-100.00,NNE,23,2.0,8.0,58,0.00,,,0.00,,2013-02-27 03:32:00,
2013-02-26 17:42:00,75.0,59.0,-100.00,NNE,23,2.0,8.0,58,0.00,,,0.00,,2013-02-27 03:42:00,
2013-02-26 17:52:00,75.0,59.0,-100.00,NNE,23,2.0,8.0,58,0.00,,,0.00,,2013-02-27 03:52:00,
2013-02-26 18:01:00,75.0,59.0,-100.00,NNE,23,2.0,8.0,58,0.00,,,0.00,,2013-02-27 04:01:00,
2013-02-26 18:11:00,71.0,58.0,-100.00,NNE,30,1.0,5.0,64,0.00,,,0.00,,2013-02-27 04:11:00,
2013-02-26 18:32:00,71.0,58.0,-100.00,NNE,30,1.0,5.0,64,0.00,,,0.00,,2013-02-27 04:32:00,
2013-02-26 18:42:00,71.0,58.0,-100.00,NNE,30,1.0,5.0,64,0.00,,,0.00,,2013-02-27 04:42:00,
2013-02-26 18:52:00,71.0,58.0,-100.00,NNE,30,1.0,5.0,64,0.00,,,0.00,,2013-02-27 04:52:00,
2013-02-26 19:01:00,71.0,58.0,-100.00,NNE,30,1.0,5.0,64,0.00,,,0.00,,2013-02-27 05:01:00,
2013-02-26 19:11:00,64.0,57.0,-100.00,North,10,0.0,5.0,77,0.00,,,0.00,,2013-02-27 05:11:00,
2013-02-26 19:32:00,64.0,57.0,-100.00,North,10,0.0,5.0,77,0.00,,,0.00,,2013-02-27 05:32:00,
2013-02-26 19:42:00,64.0,57.0,-100.00,North,10,0.0,5.0,77,0.00,,,0.00,,2013-02-27 05:42:00,
2013-02-26 19:52:00,64.0,57.0,-100.00,North,10,0.0,5.0,77,0.00,,,0.00,,2013-02-27 05:52:00,
2013-02-26 20:02:00,64.0,57.0,-100.00,North,10,0.0,5.0,77,0.00,,,0.00,,2013-02-27 06:02:00,
2013-02-26 20:11:00,62.0,56.0,-100.00,East,89,0.0,4.0,82,0.00,,,0.00,,2013-02-27 06:11:00,
2013-02-26 20:33:00,62.0,56.0,-100.00,East,89,0.0,4.0,82,0.00,,,0.00,,2013-02-27 06:33:00,
2013-02-26 20:42:00,62.0,56.0,-100.00,East,89,0.0,4.0,82,0.00,,,0.00,,2013-02-27 06:42:00,
2013-02-26 20:52:00,62.0,56.0,-100.00,East,89,0.0,4.0,82,0.00,,,0.00,,2013-02-27 06:52:00,
2013-02-26 21:01:00,62.0,56.0,-100.00,East,89,0.0,4.0,82,0.00,,,0.00,,2013-02-27 07:01:00,
2013-02-26 21:11:00,61.0,51.0,-100.00,South,185,0.0,4.0,69,0.00,,,0.00,,2013-02-27 07:11:00,
2013-02-26 21:32:00,61.0,51.0,-100.00,South,185,0.0,4.0,69,0.00,,,0.00,,2013-02-27 07:32:00,
2013-02-26 21:42:00,61.0,51.0,-100.00,South,185,0.0,4.0,69,0.00,,,0.00,,2013-02-27 07:42:00,
2013-02-26 21:52:00,61.0,51.0,-100.00,South,185,0.0,4.0,69,0.00,,,0.00,,2013-02-27 07:52:00,
2013-02-26 22:01:00,61.0,51.0,-100.00,South,185,0.0,4.0,69,0.00,,,0.00,,2013-02-27 08:01:00,
2013-02-26 22:11:00,62.0,54.0,-100.00,NNE,27,0.0,5.0,74,0.00,,,0.00,,2013-02-27 08:11:00,
2013-02-26 22:32:00,62.0,54.0,-100.00,NNE,27,0.0,5.0,74,0.00,,,0.00,,2013-02-27 08:32:00,
2013-02-26 22:42:00,62.0,54.0,-100.00,NNE,27,0.0,5.0,74,0.00,,,0.00,,2013-02-27 08:42:00,
2013-02-26 22:52:00,62.0,54.0,-100.00,NNE,27,0.0,5.0,74,0.00,,,0.00,,2013-02-27 08:52:00,
2013-02-26 23:01:00,62.0,54.0,-100.00,NNE,27,0.0,5.0,74,0.00,,,0.00,,2013-02-27 09:01:00,
2013-02-26 23:11:00,60.0,53.0,-100.00,East,88,0.0,4.0,78,0.00,,,0.00,,2013-02-27 09:11:00,
2013-02-26 23:32:00,60.0,53.0,-100.00,East,88,0.0,4.0,78,0.00,,,0.00,,2013-02-27 09:32:00,
2013-02-26 23:42:00,60.0,53.0,-100.00,East,88,0.0,4.0,78,0.00,,,0.00,,2013-02-27 09:42:00,
2013-02-26 23:52:00,60.0,53.0,-100.00,East,88,0.0,4.0,78,0.00,,,0.00,,2013-02-27 09:52:00,